Overview Statistics Trail Chart Weather Telemetry Raw packets
 

This is the latest recevied weather packets stored in our database for station/object KBTL-WX. If no packets are shown the sender has not sent any weather packets the latest 10 day(s).

<< 32 33 34 35 36 37 38 >>
Time Temp. Humidity Pressure Rain* Wind** Luminosity Snow
1777190429 6.67° C 94% 982.8 hPa 0 mm - - -
1777189513 6.67° C 89% 982.2 hPa 0 mm - - -
1777188629 6.11° C 89% 982.2 hPa 0 mm - - -
1777187713 6.11° C 89% 982.2 hPa 0 mm - - -
1777186830 5.56° C 89% 982.2 hPa 0 mm - - -
1777185913 5.56° C 85% 982.3 hPa 0 mm - - -
1777185029 6.11° C 84% 982 hPa 0 mm - - -
1777184113 6.11° C 84% 982 hPa 0 mm - - -
1777183236 6.11° C 84% 982 hPa 0 mm - - -
1777182313 6.67° C 85% 983.2 hPa 0 mm - - -
1777181424 6.67° C 86% 983.2 hPa 0 mm - - -
1777180512 6.67° C 86% 983.2 hPa 0 mm - - -
1777179633 7.22° C 86% 983.2 hPa 0 mm - - -
1777178713 7.22° C 84% 982.8 hPa 0 mm - - -
1777177828 7.78° C 84% 982.3 hPa 0 mm - - -
1777176913 7.78° C 84% 982.3 hPa 0 mm - - -
1777176035 8.33° C 84% 982.3 hPa 0 mm - - -
1777175113 8.89° C 88% 983.1 hPa 0 mm - - -
1777174229 8.89° C 80% 983.4 hPa 0 mm - - -
1777173313 10° C 80% 983.4 hPa 0 mm - - -
1777172431 10.56° C 80% 983.4 hPa 0 mm - - -
1777171513 10.56° C 84% 981.1 hPa 0 mm - - -
1777170628 10.56° C 85% 982.6 hPa 0 mm - - -
1777169713 9.44° C 85% 982.6 hPa 0 mm - - -
1777168831 9.44° C 85% 982.6 hPa 0 mm - - -

* Rain latest hour (hover to see other rain measurements)
** Current wind speed in m/s (hover to see current wind gust speed)